This is the latest recevied weather packets stored in our database for station/object KC1OEK-13. If no packets are shown the sender has not sent any weather packets the latest 10 day(s).
| Time | Temp. | Humidity | Pressure | Rain* | Wind** | Luminosity | Snow |
|---|---|---|---|---|---|---|---|
| 1787438927 | 20° C | 93% | 1017.6 hPa | 0 mm | - | 15 W/m² | - |
| 1787438622 | 20° C | 92% | 1017.7 hPa | 0 mm | - | 17 W/m² | - |
| 1787438317 | 20° C | 92% | 1017.7 hPa | 0 mm | - | 19 W/m² | - |
| 1787438010 | 20° C | 92% | 1017.7 hPa | 0 mm | - | 18 W/m² | - |
| 1787437707 | 20.56° C | 92% | 1017.9 hPa | 0 mm | - | 18 W/m² | - |
| 1787437404 | 20° C | 92% | 1017.8 hPa | 0 mm | - | 17 W/m² | - |
| 1787437099 | 20° C | 91% | 1018.1 hPa | 0 mm | - | 22 W/m² | - |
| 1787436795 | 20.56° C | 91% | 1017.9 hPa | 0 mm | - | 27 W/m² | - |
| 1787436492 | 20.56° C | 90% | 1017.9 hPa | 0 mm | - | 20 W/m² | - |
| 1787436190 | 20.56° C | 90% | 1018 hPa | 0 mm | - | 32 W/m² | - |
| 1787435890 | 20.56° C | 90% | 1018 hPa | 0 mm | - | 40 W/m² | - |
| 1787435587 | 20.56° C | 91% | 1018 hPa | 0 mm | - | 35 W/m² | - |
| 1787435283 | 20.56° C | 90% | 1018.1 hPa | 0 mm | - | 41 W/m² | - |
| 1787434979 | 20.56° C | 89% | 1018 hPa | 0 mm | - | 45 W/m² | - |
| 1787434675 | 20.56° C | 89% | 1018.1 hPa | 0 mm | - | 55 W/m² | - |
| 1787434371 | 20.56° C | 89% | 1018.2 hPa | 0 mm | - | 66 W/m² | - |
| 1787434066 | 20.56° C | 89% | 1018.3 hPa | 0 mm | - | 52 W/m² | - |
| 1787433762 | 20.56° C | 89% | 1018.4 hPa | 0 mm | - | 54 W/m² | - |
| 1787433457 | 20.56° C | 89% | 1018.3 hPa | 0 mm | - | 53 W/m² | - |
| 1787433152 | 20.56° C | 89% | 1018.3 hPa | 0 mm | - | 68 W/m² | - |
| 1787432849 | 20.56° C | 88% | 1018.5 hPa | 0 mm | - | 63 W/m² | - |
| 1787432545 | 20.56° C | 89% | 1018.4 hPa | 0 mm | - | 102 W/m² | - |
| 1787432243 | 20.56° C | 89% | 1018.4 hPa | 0 mm | - | 89 W/m² | - |
| 1787431939 | 20.56° C | 88% | 1018.4 hPa | 0 mm | - | 78 W/m² | - |
| 1787431638 | 21.11° C | 87% | 1018.5 hPa | 0 mm | - | 97 W/m² | - |
* Rain latest hour (hover to see other rain measurements)
** Current wind speed in m/s (hover to see current wind gust speed)